User: anonymous   Login
Location: Clatteringshaws Loch
(55.0508°N, 4.2860°W)
Time: 11:35:51
(UTC+01:00)
Language:

Sapphire - Orbit

View from above orbital plane
View from above orbital plane
View from above satellite
View from above satellite

Ground track
Ground track

The orbit data is extracted from the following two-line orbital elements,

1 26932U 01043D   16267.92618622 -.00000015  00000-0  26297-4 0  9995
2 26932  67.0559  60.1294 0004967 247.0587 112.9990 14.30224271782292
Epoch (UTC): 23 September 2016 22:13:42
Eccentricity: 0.0004967
inclination: 67.0559°
perigee height: 787 km
apogee height: 794 km
right ascension of ascending node: 60.1294°
argument of perigee: 247.0587°
revolutions per day: 14.30224271
mean anomaly at epoch: 112.9990°
orbit number at epoch: 78229

The dashed part of the orbit path shows where the satellite is in the earth's shadow,  

DLR